Weather in Nizhneivkino

Russia / Kirov Oblast     58°11′36″N   49°31′24″E
temp.,
°C
wind,
m/s
gust,
m/s
humid.,
%
clouds,
%
prec.,
mm/h
press.,
hPa
HPBL,
m
15 april, thu
thu1500:00+6ssw310905 0.0 1022152
03:00+6ssw39935 0.0 1021139
06:00+6ssw2710099 0.0 1020120
09:00+10wsw1398100 0.1 1020157
12:00+14w238676 0.4 1019595
15:00+10n3796100 0.6 1021339
18:00+5nne51189100 0.1 1023510
21:00+4ne41285100 0.1 1025539
16 april, fri
fri1600:00+4ne4118485 0.0 1026611
03:00+2ne4128416 0.0 1028499
06:00+1ne412775 0.0 1029517
09:00+5ene58592 0.0 1030746
12:00+8ene45490 0.0 10291051
15:00+9ne45450 0.0 10291104
18:00+6ne26630 0.0 1029154
21:00+3ne26740 0.0 1030102
17 april, sat
sat1700:00+1ne22780 0.0 103144
03:000ne22810 0.0 103116
06:00+2ne24780 0.0 1032110
09:00+7nne23560 0.0 1032657
12:00+9nne23495 0.0 10301405
15:00+10n244635 0.0 10291609
18:00+8nnw22625 0.0 102814
21:00+4nnw22745 0.0 102820
18 april, sun
sun1800:00+3nnw25820 0.0 102899
03:00+1nnw24850 0.0 102870
06:00+2nnw29820 0.0 1028307
09:00+6nne466769 0.0 1028991
12:00+5ne4673100 0.0 1029902
15:00+7ne56351 0.0 10301633
18:00+4ne48471 0.0 1031559
21:00+1ene311583 0.0 1033373
19 april, mon
mon1900:00−1ene310630 0.0 1034312
03:00−2ene28690 0.0 1036238
06:000e37590 0.0 1037359
09:00+3e45435 0.0 10361354
12:00+6e34355 0.0 10351629
15:00+6e34344 0.0 10341643
18:00+4e24460 0.0 103496
21:00+1ese22570 0.0 103518